Location: Croydon
(51.3762°N, 0.0982°W)
Time: 02:09:05
(UTC+01:00)

VELOX 1 - Pass Details

Date: 26 April 2019
Orbit: 629 x 644 km, 98.2° (Epoch: 24 May)

Event Time Altitude Azimuth Distance (km) Brightness Sun altitude
Exits shadow 00:42:31 20° 84° (E) 1,485 ? -25.2°
Maximum altitude 00:43:45 22° 60° (ENE) 1,386 ? -25.2°
Drops below altitude 10° 00:47:07 10° 10° (N) 2,023 ? -25.2°
Sets 00:49:42 0° 355° (N) 2,937 ? -25.2°
